カタログに戻る

HULIANWANG DIGUI-91

運用中通信LEO
NORAD 65999·PAYLOAD·🇨🇳 China

打ち上げ Oct 16, 2025 から Wenchang Space Launch Site

Loading…

次のパス (今後24時間)

TLE

最新Source: Space-Track

元期: Sep 14, 2026, 14:29 UTC

1 65999U 25231E   26257.60354572 -.00000100  00000-0  52583-4 0  9994
2 65999  50.0001 214.9351 0000358  41.0668 319.0231 13.29329617 44787

AllMySatでHULIANWANG DIGUI-91をリアルタイム追跡

Download on the App Store